This is the latest recevied weather packets stored in our database for station/object M0JUI-1. If no packets are shown the sender has not sent any weather packets the latest 10 day(s).
| Time | Temp. | Humidity | Pressure | Rain* | Wind** | Luminosity | Snow |
|---|---|---|---|---|---|---|---|
| 1778182635 | 11.11° C | 99% | 1015 hPa | 0 mm | - | 0 W/m² | - |
| 1778182323 | 11.11° C | 99% | 1015 hPa | 0 mm | - | 2 W/m² | - |
| 1778182023 | 11.11° C | 99% | 1014.9 hPa | 0 mm | - | 3 W/m² | - |
| 1778181723 | 11.67° C | 99% | 1015 hPa | 0 mm | - | 3 W/m² | - |
| 1778181411 | 11.67° C | 99% | 1014.7 hPa | 0 mm | - | 3 W/m² | - |
| 1778181111 | 11.67° C | 99% | 1015 hPa | 0 mm | - | 4 W/m² | - |
| 1778180812 | 11.67° C | 99% | 1014.9 hPa | 0 mm | - | 4 W/m² | - |
| 1778180499 | 11.67° C | 99% | 1015.1 hPa | 0 mm | - | 4 W/m² | - |
| 1778180199 | 11.67° C | 99% | 1015.1 hPa | 0 mm | - | 4 W/m² | - |
| 1778179900 | 11.67° C | 99% | 1014.9 hPa | 0 mm | - | 4 W/m² | - |
| 1778179599 | 11.67° C | 99% | 1015 hPa | 0 mm | - | 6 W/m² | - |
| 1778179299 | 11.67° C | 99% | 1015 hPa | 0 mm | - | 7 W/m² | - |
| 1778178999 | 11.67° C | 99% | 1015 hPa | 0 mm | - | 6 W/m² | - |
| 1778178699 | 11.67° C | 99% | 1014.9 hPa | 0 mm | - | 4 W/m² | - |
| 1778178399 | 12.22° C | 99% | 1015 hPa | 0 mm | - | 4 W/m² | - |
| 1778178100 | 12.22° C | 98% | 1015 hPa | 0 mm | - | 4 W/m² | - |
| 1778177799 | 12.22° C | 95% | 1015.1 hPa | 0 mm | - | 4 W/m² | - |
| 1778177500 | 12.22° C | 95% | 1014.9 hPa | 0 mm | - | 4 W/m² | - |
| 1778177187 | 12.78° C | 92% | 1014.8 hPa | 0 mm | - | 6 W/m² | - |
| 1778176887 | 12.78° C | 91% | 1014.6 hPa | 0 mm | - | 9 W/m² | - |
| 1778176588 | 12.78° C | 87% | 1014.6 hPa | 0 mm | - | 10 W/m² | - |
| 1778176287 | 12.78° C | 85% | 1014.7 hPa | 0 mm | - | 12 W/m² | - |
| 1778175987 | 13.33° C | 84% | 1014.6 hPa | 0 mm | - | 11 W/m² | - |
| 1778175687 | 13.33° C | 84% | 1014.6 hPa | 0 mm | - | 11 W/m² | - |
| 1778175387 | 13.33° C | 83% | 1014.6 hPa | 0 mm | - | 16 W/m² | - |
* Rain latest hour (hover to see other rain measurements)
** Current wind speed in m/s (hover to see current wind gust speed)